ION SCV Eminent Emmanuel

operational
NORAD ID: 62630 Int'l Des: 2025-009 Owner: DORBIT Country: I
LEOCIRCULARRETROGRADESSO

ION SCV Eminent Emmanuelについて

説明を読み込み中...

リアルタイム位置

3D地球を読み込み中...

次回通過

高度履歴

Altitude vs Time

uPlot chart will show altitude changes over time

軌道要素

1 62630U 25009X 25340.48134163 .00004153 00000-0 30145-3 0 9996
2 62630 97.5091 54.3290 0006401 80.6317 279.5633 15.04408944 49006
Epoch: Dec 6, 2025 • Age: 18 hours

現在のステータス

高度 559.9 km
速度 7.59 km/s
衛星直下点 58.18°N, 86.29°E
打ち上げ日 Jan 14, 2025
運用期間 0.8 years
タイプ other

技術仕様

分類 Payload
質量 150.00 kg
乾燥質量 150.00 kg
総質量 220.00 kg
長さ 0.40 m
直径 0.40 m
スパン 0.40 m
形状 Box
製造者 DORBIT
バスタイプ ION-SC
フェーズステータス In Orbit
所有者/国 DORBIT/I

大規模コンステレーション

Loading constellations...